Regional Weather Roundup
Issued by NWS

Home | Current Version | Previous Version | Text Only | Print | Product List | Glossary On
Versions: 1 2 3 4 5 6 7 8 9 10 11 12 13 14 15 16 17 18 19 20 21 22 23 24 25 26 27 28 29 30 31 32 33 34 35 36 37 38 39 40 41 42 43 44 45 46 47 48 49 50
000
ASUS43 KMKX 270400
RWRWI

WISCONSIN REGIONAL WEATHER ROUNDUP
NATIONAL WEATHER SERVICE MILWAUKEE/SULLIVAN WI
1100 PM CDT SAT MAY 26 2018

NOTE: "FAIR" INDICATES FEW OR NO CLOUDS BELOW 12,000 FEET WITH NO
SIGNIFICANT WEATHER AND/OR OBSTRUCTIONS TO VISIBILITY.

WIZ001-002-006>008-014>016-023>028-270500-
NORTHWEST WISCONSIN

CITY           SKY/WX    TMP DP  RH WIND       PRES   REMARKS
SUPERIOR ARPT  FOG       49  49 100 CALM      29.78S VSB 1/2
ASHLAND        FAIR      54  53  97 CALM      29.77R
HAYWARD        FAIR      66  57  72 NE3       29.77R
SIREN          FAIR      65  55  70 CALM      29.75R
CUMBERLAND     FAIR      66  55  68 CALM      29.77R
RICE LAKE      FAIR      68  58  71 CALM      29.77R
CHETEK         FAIR      67  62  83 CALM      29.75S
LADYSMITH      FAIR      67  59  77 CALM      29.77S
EAU CLAIRE     NOT AVBL
MENOMONIE      FAIR      73  62  68 CALM      29.75S
NEW RICHMOND   FAIR      70  59  68 CALM      29.75S
OSCEOLA        FAIR      67  58  73 CALM      29.77R
$$

WIZ003>005-009-010-017-018-270500-
NORTH CENTRAL WISCONSIN

CITY           SKY/WX    TMP DP  RH WIND       PRES   REMARKS
MANITOWISH WTR FAIR      62  61  95 CALM      29.78S
ARBOR VITAE    FAIR      72  63  73 E6        29.78R
WOODRUFF       FAIR      72  63  73 E6        29.78R
RHINELANDER    FAIR      67  61  81 E3        29.78S
EAGLE RIVER    FAIR      65  57  75 CALM      29.78S
LAND O LAKES   FAIR      63  58  85 S5        29.80F
PHILLIPS       FAIR      67  60  77 NW3       29.77R
TOMAHAWK       CLOUDY    64  58  79 CALM      29.77S
MEDFORD        CLOUDY    70  57  63 S3        29.77R
MERRILL        FAIR      64  61  89 CALM      29.76S
$$

WIZ029-030-035-036-043>047-270500-
CENTRAL WISCONSIN

CITY           SKY/WX    TMP DP  RH WIND       PRES   REMARKS
WAUSAU         NOT AVBL
MOSINEE        FAIR      72  59  64 SW5       29.77S
MARSHFIELD     FAIR      73  61  65 SW6       29.76S
STEVENS POINT  FAIR      71  59  66 SW3       29.77R
WAUPACA        FAIR      73  60  65 CALM      29.76R
WAUTOMA        NOT AVBL
WISC RAPIDS    FAIR      73  60  63 SW3       29.77S
CAMP DOUGLAS   FAIR      67  63  86 CALM      29.77R
$$

WIZ011>013-019>022-031-037>040-048>050-270500-
NORTHEAST WISCONSIN

CITY           SKY/WX    TMP DP  RH WIND       PRES   REMARKS
ANTIGO         FAIR      66  61  82 SE6       29.79S
SHAWANO        FAIR      68  61  77 CALM      29.76S
OCONTO         FAIR      66  58  76 S7        29.75R
STURGEON BAY   FAIR      66  59  78 S14       29.76F
GREEN BAY      FAIR      67  57  70 E9        29.76S
MANITOWOC      NOT AVBL
APPLETON       PTCLDY    75  57  53 SW7       29.74S
CLINTONVILLE   HVY RAIN  70  62  74 E10       29.76R
OSHKOSH        FAIR      79  61  53 SW7       29.75S HX  80
$$

WIZ032>034-041-042-053>061-270500-
SOUTHWEST WISCONSIN

CITY           SKY/WX    TMP DP  RH WIND       PRES   REMARKS
LA CROSSE      FAIR      77  68  73 S6        29.75R
SPARTA         FAIR      66  62  88 CALM      29.78R
VIROQUA        FAIR      78  64  60 S6        29.80S HX  80
BOSCOBEL       FAIR      69  67  93 CALM      29.77S
PRAIRIE DU CHI FAIR      73  65  78 CALM      29.76S
PLATTEVILLE    FAIR      74  66  75 S6        29.80S
$$

WIZ056-057-062-063-064-067-068-270500-
SOUTH CENTRAL WISCONSIN

CITY           SKY/WX    TMP DP  RH WIND       PRES   REMARKS
REEDSBURG      FAIR      72  65  80 CALM      29.78R
BARABOO/DELLS  FAIR      71  62  74 S5        29.79R
LONE ROCK      NOT AVBL
MINERAL POINT  FAIR      79  64  61 S5        29.81S HX  81
MADISON        FAIR      70  63  78 CALM      29.78R
MIDDLETON      FAIR      70  63  79 CALM      29.80S
WATERTOWN      FAIR      69  65  88 CALM      29.79R
MONROE         FAIR      77  61  57 SW3       29.81R
JANESVILLE     FAIR      72  61  68 CALM      29.80S
$$

WIZ051-052-058>065-066-070>072-270500-
SOUTHEAST WISCONSIN

CITY           SKY/WX    TMP DP  RH WIND       PRES   REMARKS
MILWAUKEE      FAIR      73  60  63 S6        29.80R
WAUKESHA       FAIR      72  61  68 CALM      29.81S
MILWAUKEE/TIMM FAIR      73  55  53 S3        29.80R
RACINE         FAIR      70  57  63 S6        29.82R
BURLINGTON     FAIR      69  64  83 CALM      29.81R
KENOSHA        FAIR      71  57  61 S6        29.81R
FOND DU LAC    FAIR      75  60  59 SW7       29.76F
SHEBOYGAN      FAIR      67  59  75 S3        29.77S
WEST BEND      FAIR      70  61  73 CALM      29.79S
JUNEAU         FAIR      74  61  62 CALM      29.80R
$$

LSZ147-162-270500-
LAKE SUPERIOR

STATION/POSITION TIME  TEMP    WIND        PRES    WAVE
                       AIR SEA DIR/SP/G            HT/PER
                 (UTC) (F)     (DEG/KT/KT) (MB)    (FT/S)
W MID LAKE BUOY  0250   38 36  330/  8/ 10 1007.7R   1/ 3
DEVILS ISLAND    0300   44      10/  4/  5 1008.7R
SAXON HARBOR     0340   51     210/  2/  5 1007.5R
$$

LMZ867-665-643>646-270500-
LAKE MICHIGAN

STATION/POSITION TIME  TEMP    WIND        PRES    WAVE
                       AIR SEA DIR/SP/G            HT/PER
                 (UTC) (F)     (DEG/KT/KT) (MB)    (FT/S)
N MID LAKE BUOY  0340   47 38  190/ 10/ 12 1007.4F
NORTHPORT PIER   0340   63     180/  3/  7 1007.5F
KEWAUNEE LAKESHO 0330   51     130/  4/  5 1008.6R
SHEBOYGAN LAKESH 0300   65     190/ 13/ 14 1007.7R
PORT WASHINGTON  0330   62     190/  5/  6 1009.1F
ATWATER BUOY     0307   57 51  180/ 10/ 10 1008.8    1
MILWAUKEE LAKESH 0330   50     170/  3/  3   N/A
S MID LAKE BUOY  0250   54 41  150/  8/ 10 1009.2R   0
KENOSHA   LAKESH 0300   67                 1008.8
$$

TC  - TEMPERATURE IN CELSIUS
VSB - VISIBILITY IN STATUTE MILES
WCI - WIND CHILL INDEX
HX  - HEAT INDEX





USA.gov is the U.S. government's official web portal to all federal, state and local government web resources and services.